CW7016 Weather Reports


time (UTC)temp
C
wind
direction
speed
KPH
gust
KPH
rain 1hr
cm
rain 24hr
cm
rain mn
cm
humidity
%
barometer
mb
20260506202240 19 315 6.4 22.5 0.00 0.03 0.03 76 1005.4
20260506201757 19 306 17.7 22.5 0.00 0.03 0.03 76 1005.4
20260506201244 19 232 8.0 22.5 0.00 0.03 0.03 77 1005.4
20260506200733 19 229 9.7 19.3 0.00 0.03 0.03 77 1005.5
20260506200221 18 194 9.7 20.9 0.00 0.03 0.03 77 1005.6
20260506195735 18 214 4.8 20.9 0.00 0.03 0.03 78 1005.7
20260506195223 18 194 11.3 20.9 0.00 0.03 0.03 78 1005.8
20260506194739 18 205 8.0 25.7 0.00 0.03 0.03 78 1005.9
20260506194230 18 182 9.7 25.7 0.00 0.03 0.03 78 1005.9
20260506193721 18 236 6.4 16.1 0.00 0.03 0.03 78 1006.0
20260506193237 18 225 8.0 17.7 0.00 0.03 0.03 78 1006.1
20260506192733 18 206 6.4 22.5 0.00 0.03 0.03 78 1006.1
20260506192221 18 203 9.7 22.5 0.00 0.03 0.03 78 1006.0
20260506191804 18 203 9.7 19.3 0.00 0.03 0.03 78 1006.1
20260506191234 18 280 9.7 30.6 0.00 0.03 0.03 77 1006.2
20260506190740 18 218 14.5 30.6 0.00 0.03 0.03 77 1006.3
20260506190231 18 203 19.3 37.0 0.00 0.03 0.03 76 1006.3
20260506185742 19 186 17.7 38.6 0.00 0.03 0.03 76 1006.3
20260506185231 19 211 17.7 40.2 0.00 0.03 0.03 75 1006.4
20260506184741 19 180 9.7 40.2 0.00 0.03 0.03 74 1006.3
20260506184232 19 227 9.7 16.1 0.00 0.03 0.03 75 1006.4
20260506183751 19 206 9.7 22.5 0.00 0.03 0.03 74 1006.3
20260506183222 19 238 12.9 30.6 0.00 0.03 0.03 74 1006.3
20260506182718 19 252 16.1 30.6 0.00 0.03 0.03 74 1006.3
20260506182235 19 175 3.2 22.5 0.00 0.03 0.03 74 1006.3
20260506181723 19 148 11.3 25.7 0.00 0.03 0.03 74 1006.4
20260506181219 19 192 16.1 33.8 0.00 0.03 0.03 74 1006.5
20260506180736 19 267 20.9 33.8 0.00 0.03 0.03 75 1006.5
20260506180243 19 210 12.9 29.0 0.00 0.03 0.03 75 1006.5
20260506175735 19 225 9.7 29.0 0.00 0.03 0.03 75 1006.6
20260506175223 19 217 11.3 32.2 0.00 0.03 0.03 75 1006.7
20260506174740 20 209 14.5 32.2 0.00 0.03 0.03 75 1006.8
20260506174233 20 229 14.5 33.8 0.00 0.03 0.03 74 1006.7
20260506173721 20 184 14.5 37.0 0.00 0.03 0.03 73 1006.7
20260506173237 20 184 27.4 38.6 0.00 0.03 0.03 73 1006.7
20260506172745 20 188 16.1 38.6 0.00 0.03 0.03 74 1006.7
20260506172239 20 198 20.9 32.2 0.00 0.03 0.03 74 1006.6
20260506171744 20 175 14.5 32.2 0.00 0.03 0.03 75 1006.5
20260506171237 20 162 14.5 29.0 0.00 0.03 0.03 76 1006.5
20260506170728 20 191 17.7 22.5 0.00 0.03 0.03 78 1006.6
20260506170305 19 200 11.3 22.5 0.03 0.03 0.03 79 1006.7
20260506165734 19 188 9.7 14.5 0.03 0.03 0.03 81 1006.7
20260506165221 18 157 9.7 14.5 0.03 0.03 0.03 82 1006.8
20260506164805 18 190 6.4 14.5 0.03 0.03 0.03 82 1007.0
20260506164302 18 148 8.0 14.5 0.03 0.03 0.03 80 1007.2
20260506163729 18 208 9.7 16.1 0.03 0.03 0.03 80 1007.4
20260506163244 18 214 9.7 16.1 0.03 0.03 0.03 80 1007.6
20260506162734 18 148 4.8 19.3 0.03 0.03 0.03 79 1007.8
20260506162224 18 205 9.7 19.3 0.03 0.03 0.03 79 1007.9
20260506161738 18 190 1.6 17.7 0.03 0.03 0.03 79 1008.0
20260506161228 18 195 6.4 17.7 0.03 0.03 0.03 78 1008.1
20260506160741 18 194 8.0 16.1 0.03 0.03 0.03 77 1008.2
20260506160235 19 194 9.7 14.5 0.00 0.00 0.00 77 1008.3
20260506155743 19 194 3.2 16.1 0.00 0.00 0.00 75 1008.3
20260506155256 19 256 8.0 17.7 0.00 0.00 0.00 75 1008.3
20260506154805 20 205 9.7 25.7 0.00 0.00 0.00 73 1008.4
20260506154252 20 189 16.1 25.7 0.00 0.00 0.00 72 1008.3
20260506153743 20 198 14.5 32.2 0.00 0.00 0.00 71 1008.1
20260506153230 21 192 12.9 32.2 0.00 0.00 0.00 68 1008.0
20260506152803 21 236 16.1 29.0 0.00 0.00 0.00 66 1008.1
20260506152230 21 223 16.1 29.0 0.00 0.00 0.00 65 1008.1
20260506151744 21 199 12.9 33.8 0.00 0.00 0.00 67 1008.1
20260506151235 21 167 24.1 33.8 0.00 0.00 0.00 67 1008.1
20260506150725 21 209 14.5 29.0 0.00 0.00 0.00 67 1008.3
20260506150242 21 240 14.5 33.8 0.00 0.00 0.00 67 1008.2
20260506145731 21 188 11.3 33.8 0.00 0.00 0.00 67 1008.2
20260506145223 21 200 11.3 32.2 0.00 0.00 0.00 66 1008.3
20260506144737 21 217 16.1 24.1 0.00 0.00 0.00 66 1008.3
20260506144227 21 170 8.0 25.7 0.00 0.00 0.00 67 1008.3
20260506143742 21 202 11.3 25.7 0.00 0.00 0.00 66 1008.3
20260506143228 21 203 12.9 30.6 0.00 0.00 0.00 66 1008.3
20260506142722 21 308 14.5 30.6 0.00 0.00 0.00 65 1008.2
20260506142241 21 157 14.5 37.0 0.00 0.00 0.00 66 1008.3
20260506141733 21 252 12.9 37.0 0.00 0.00 0.00 66 1008.3
20260506141222 21 141 6.4 20.9 0.00 0.00 0.00 67 1008.2
20260506140755 21 219 17.7 25.7 0.00 0.00 0.00 67 1008.3
20260506140222 21 184 9.7 25.7 0.00 0.00 0.00 67 1008.2
20260506135740 21 207 8.0 32.2 0.00 0.00 0.00 67 1008.3
20260506135233 21 209 8.0 32.2 0.00 0.00 0.00 67 1008.3
20260506134738 21 250 9.7 32.2 0.00 0.00 0.00 67 1008.2
20260506134252 21 203 11.3 32.2 0.00 0.00 0.00 67 1008.1
20260506133744 21 247 16.1 32.2 0.00 0.00 0.00 67 1008.2
20260506133233 21 205 12.9 25.7 0.00 0.00 0.00 67 1008.3
20260506132743 21 219 11.3 30.6 0.00 0.00 0.00 67 1008.3
20260506132233 21 215 14.5 30.6 0.00 0.00 0.00 67 1008.4
20260506131722 21 229 11.3 38.6 0.00 0.00 0.00 67 1008.4
20260506131237 21 141 19.3 38.6 0.00 0.00 0.00 67 1008.4
20260506130729 21 192 12.9 25.7 0.00 0.00 0.00 69 1008.4
20260506130243 20 200 19.3 30.6 0.00 0.00 0.00 69 1008.3
20260506125734 20 197 24.1 30.6 0.00 0.00 0.00 69 1008.4
20260506125221 20 203 14.5 29.0 0.00 0.00 0.00 70 1008.4
20260506124755 20 159 9.7 29.0 0.00 0.00 0.00 69 1008.2
20260506124244 20 230 14.5 32.2 0.00 0.00 0.00 70 1008.3
20260506123735 20 168 14.5 32.2 0.00 0.00 0.00 70 1008.2
20260506123223 20 225 11.3 24.1 0.00 0.00 0.00 71 1008.1
20260506122719 19 163 19.3 29.0 0.00 0.00 0.00 71 1008.2
20260506122236 19 194 12.9 29.0 0.00 0.00 0.00 72 1008.2
20260506121755 19 223 11.3 29.0 0.00 0.00 0.00 72 1008.4
20260506121221 18 175 16.1 29.0 0.00 0.00 0.00 72 1008.5
20260506120737 18 180 11.3 35.4 0.00 0.00 0.00 72 1008.5
20260506120233 18 256 8.0 35.4 0.00 0.00 0.00 72 1008.4
20260506115722 18 126 9.7 25.7 0.00 0.00 0.00 72 1008.5
20260506115235 18 157 6.4 24.1 0.00 0.00 0.00 73 1008.4
20260506114741 18 167 9.7 33.8 0.00 0.00 0.00 72 1008.4
20260506114232 18 211 19.3 33.8 0.00 0.00 0.00 72 1008.5
20260506113720 18 182 12.9 29.0 0.00 0.00 0.00 72 1008.6
20260506113237 18 179 6.4 25.7 0.00 0.00 0.00 73 1008.7
20260506112756 18 204 12.9 30.6 0.00 0.00 0.00 73 1008.5
20260506112222 18 203 17.7 30.6 0.00 0.00 0.00 73 1008.4
20260506111755 18 188 11.3 24.1 0.00 0.00 0.00 74 1008.5
20260506111244 18 191 12.9 20.9 0.00 0.00 0.00 75 1008.6
20260506110754 17 197 12.9 29.0 0.00 0.00 0.00 75 1008.6
20260506110222 17 180 16.1 29.0 0.00 0.00 0.00 75 1008.6
20260506105737 17 153 11.3 25.7 0.00 0.00 0.00 75 1008.6
20260506105224 17 157 11.3 25.7 0.00 0.00 0.00 76 1008.5
20260506104741 17 141 14.5 24.1 0.00 0.00 0.00 76 1008.5
20260506104232 17 231 14.5 24.1 0.00 0.00 0.00 77 1008.5
20260506103721 17 185 16.1 24.1 0.00 0.00 0.00 77 1008.4
20260506103237 17 161 8.0 22.5 0.00 0.00 0.00 77 1008.4
20260506102744 17 196 9.7 16.1 0.00 0.00 0.00 77 1008.4
20260506102238 17 133 11.3 16.1 0.00 0.00 0.00 77 1008.5
20260506101723 17 211 11.3 17.7 0.00 0.00 0.00 77 1008.5
20260506101237 17 188 11.3 17.7 0.00 0.00 0.00 77 1008.5
20260506100751 17 198 8.0 19.3 0.00 0.00 0.00 77 1008.4
20260506100239 17 198 8.0 20.9 0.00 0.00 0.00 77 1008.4
20260506095726 17 172 9.7 17.7 0.00 0.00 0.00 77 1008.4
20260506095240 17 130 9.7 16.1 0.00 0.00 0.00 77 1008.3
20260506094733 17 163 11.3 16.1 0.00 0.00 0.00 77 1008.3
20260506094222 17 160 11.3 17.7 0.00 0.00 0.00 77 1008.3
20260506093741 17 201 6.4 20.9 0.00 0.00 0.00 77 1008.3
20260506093248 17 149 11.3 20.9 0.00 0.00 0.00 77 1008.2
20260506092721 17 169 9.7 19.3 0.00 0.00 0.00 77 1008.2
20260506092238 17 215 11.3 19.3 0.00 0.00 0.00 77 1008.3
20260506091725 17 217 6.4 24.1 0.00 0.00 0.00 77 1008.2
20260506091240 17 157 9.7 24.1 0.00 0.00 0.00 77 1008.4
20260506090727 17 163 9.7 19.3 0.00 0.00 0.00 77 1008.5
20260506090221 17 169 8.0 25.7 0.00 0.00 0.00 77 1008.4
20260506085738 17 207 12.9 25.7 0.00 0.00 0.00 77 1008.4
20260506085255 17 180 14.5 22.5 0.00 0.00 0.00 76 1008.4
20260506084724 17 175 12.9 22.5 0.00 0.00 0.00 76 1008.5
20260506084243 18 142 11.3 22.5 0.00 0.00 0.00 76 1008.5
20260506083733 18 173 14.5 22.5 0.00 0.00 0.00 76 1008.6
20260506083221 18 214 9.7 20.9 0.00 0.00 0.00 76 1008.5
20260506082739 18 148 12.9 19.3 0.00 0.00 0.00 76 1008.5
20260506082230 18 184 12.9 24.1 0.00 0.00 0.00 76 1008.6
20260506081741 18 225 14.5 24.1 0.00 0.00 0.00 76 1008.6
20260506081231 18 174 12.9 29.0 0.00 0.00 0.00 75 1008.7
20260506080720 18 209 16.1 29.0 0.00 0.00 0.00 75 1008.6
20260506080239 18 207 12.9 29.0 0.00 0.00 0.00 75 1008.5
20260506073221 18 194 9.7 25.7 0.00 0.00 0.00 75 1008.6
20260506072739 18 209 8.0 25.7 0.00 0.00 0.00 75 1008.6
20260506072229 18 203 12.9 20.9 0.00 0.00 0.00 74 1008.6
20260506071720 18 225 11.3 29.0 0.00 0.00 0.00 74 1008.6
20260506071243 18 197 14.5 29.0 0.00 0.00 0.00 74 1008.7
20260506070736 18 194 8.0 22.5 0.00 0.00 0.00 74 1008.8
20260506070225 18 213 14.5 24.1 0.00 0.00 0.00 74 1008.8
20260506062243 19 164 14.5 19.3 0.00 0.00 0.00 72 1008.8
20260506061733 19 178 6.4 17.7 0.00 0.00 0.00 72 1008.8
20260506061244 19 172 12.9 20.9 0.00 0.00 0.00 72 1008.8
20260506060735 19 162 12.9 22.5 0.00 0.00 0.00 72 1008.8
20260506060228 19 193 11.3 22.5 0.00 0.00 0.00 72 1008.8
20260506051242 19 186 9.7 14.5 0.00 0.00 0.00 71 1009.3
20260506050733 20 200 11.3 16.1 0.00 0.00 0.00 70 1009.5
20260506050221 20 213 6.4 16.1 0.00 0.00 0.00 70 1009.6
20260506044720 20 200 4.8 20.9 0.00 0.00 0.00 69 1009.5
20260506044238 20 218 9.7 24.1 0.00 0.00 0.00 69 1009.6
20260506043758 20 200 12.9 24.1 0.00 0.00 0.00 69 1009.6
20260506043242 20 217 11.3 16.1 0.00 0.00 0.00 69 1009.5
20260506042752 20 202 6.4 16.1 0.00 0.00 0.00 68 1009.5
20260506042244 20 142 11.3 16.1 0.00 0.00 0.00 68 1009.5
20260506041736 20 216 4.8 17.7 0.00 0.00 0.00 68 1009.5
20260506041224 20 214 11.3 22.5 0.00 0.00 0.00 68 1009.5
20260506040740 20 186 8.0 24.1 0.00 0.00 0.00 68 1009.5
20260506040250 20 202 9.7 24.1 0.00 0.00 0.00 68 1009.4
20260506035735 20 157 9.7 24.1 0.00 0.00 0.00 68 1009.3
20260506035224 20 291 11.3 24.1 0.00 0.00 0.00 67 1009.3
20260506034742 20 159 14.5 24.1 0.00 0.00 0.00 67 1009.3
20260506034231 20 212 12.9 19.3 0.00 0.00 0.00 67 1009.4
20260506033745 20 171 4.8 22.5 0.00 0.00 0.00 66 1009.4
20260506033234 20 168 9.7 32.2 0.00 0.00 0.00 66 1009.5
20260506032724 20 181 9.7 32.2 0.00 0.00 0.00 66 1009.4
20260506032241 20 178 12.9 19.3 0.00 0.00 0.00 66 1009.4
20260506031731 21 153 12.9 19.3 0.00 0.00 0.00 65 1009.3
20260506031221 21 239 8.0 17.7 0.00 0.00 0.00 65 1009.4
20260506030739 21 137 9.7 22.5 0.00 0.00 0.00 65 1009.4
20260506030226 21 190 9.7 25.7 0.00 0.00 0.00 64 1009.3
20260506025741 21 161 6.4 25.7 0.00 0.00 0.00 64 1009.4
20260506025231 21 181 6.4 33.8 0.00 0.00 0.00 63 1009.4
20260506024744 21 200 12.9 33.8 0.00 0.00 0.00 63 1009.4
20260506024248 21 164 12.9 25.7 0.00 0.00 0.00 63 1009.4
20260506023805 21 238 9.7 24.1 0.00 0.00 0.00 62 1009.4
20260506023232 21 179 6.4 29.0 0.00 0.00 0.00 62 1009.5
20260506022743 21 189 9.7 29.0 0.00 0.00 0.00 62 1009.4
20260506022234 21 202 9.7 25.7 0.00 0.00 0.00 61 1009.3
20260506021723 21 204 8.0 24.1 0.00 0.00 0.00 61 1009.3
20260506021239 21 192 12.9 25.7 0.00 0.00 0.00 61 1009.3
20260506020758 21 182 12.9 25.7 0.00 0.00 0.00 60 1009.3
20260506020226 21 161 17.7 30.6 0.00 0.00 0.00 60 1009.3
20260506015742 21 196 12.9 30.6 0.00 0.00 0.00 60 1009.3
20260506015233 21 181 14.5 25.7 0.00 0.00 0.00 60 1009.3
20260506014722 21 198 14.5 25.7 0.00 0.00 0.00 60 1009.2
20260506014237 22 165 17.7 20.9 0.00 0.00 0.00 60 1009.1
20260506013724 22 159 12.9 20.9 0.00 0.00 0.00 60 1009.1
20260506013239 22 144 8.0 29.0 0.00 0.00 0.00 60 1009.0
20260506012726 22 165 14.5 29.0 0.00 0.00 0.00 59 1009.0
20260506012242 22 209 8.0 19.3 0.00 0.00 0.00 59 1009.0
20260506011734 22 132 11.3 19.3 0.00 0.00 0.00 59 1009.0
20260506011242 22 182 11.3 17.7 0.00 0.00 0.00 59 1008.8
20260506010753 22 203 8.0 35.4 0.00 0.00 0.00 58 1008.8
20260506010245 22 199 8.0 35.4 0.00 0.00 0.00 58 1008.8
20260506005736 22 209 12.9 25.7 0.00 0.00 0.00 57 1008.7
20260506005245 23 206 12.9 20.9 0.00 0.00 0.00 56 1008.7
20260506004736 23 201 6.4 22.5 0.00 0.00 0.00 55 1008.6
20260506004224 23 205 9.7 22.5 0.00 0.00 0.00 54 1008.6
20260506003803 23 196 8.0 20.9 0.00 0.00 0.00 54 1008.5
20260506003259 23 148 11.3 24.1 0.00 0.00 0.00 53 1008.4
20260506002725 23 189 9.7 38.6 0.00 0.00 0.00 52 1008.4
20260506002242 23 157 9.7 38.6 0.00 0.00 0.00 51 1008.3
20260506001737 24 180 8.0 22.5 0.00 0.00 0.00 50 1008.3
20260506001225 24 175 9.7 22.5 0.00 0.00 0.00 48 1008.2
20260506000741 25 176 9.7 24.1 0.00 0.00 0.00 47 1008.1
20260506000235 25 159 14.5 20.9 0.00 0.00 0.00 46 1008.1
20260505235724 25 207 9.7 29.0 0.00 0.00 0.00 46 1008.0
20260505235218 25 189 11.3 29.0 0.00 0.00 0.00 45 1008.0
20260505234736 25 171 16.1 25.7 0.00 0.00 0.00 44 1007.9
20260505234224 25 174 17.7 25.7 0.00 0.00 0.00 44 1007.8
20260505233741 25 167 14.5 24.1 0.00 0.00 0.00 44 1007.8
20260505233233 26 202 9.7 20.9 0.00 0.00 0.00 44 1007.8
20260505232722 26 205 12.9 25.7 0.00 0.00 0.00 43 1007.7
20260505232240 26 222 9.7 30.6 0.00 0.00 0.00 43 1007.6
20260505231758 26 197 14.5 30.6 0.00 0.00 0.00 43 1007.6
20260505231225 26 195 11.3 22.5 0.00 0.00 0.00 42 1007.5
20260505230803 27 202 14.5 32.2 0.00 0.00 0.00 42 1007.6
20260505230227 27 327 12.9 33.8 0.00 0.00 0.00 41 1007.4
20260505225803 27 187 17.7 33.8 0.00 0.00 0.00 40 1007.3
20260505225232 27 193 17.7 41.8 0.00 0.00 0.00 40 1007.4
20260505224743 27 187 9.7 41.8 0.00 0.00 0.00 40 1007.4
20260505224252 27 240 22.5 37.0 0.00 0.00 0.00 39 1007.3
20260505223721 27 213 17.7 37.0 0.00 0.00 0.00 38 1007.1
20260505223240 27 198 17.7 38.6 0.00 0.00 0.00 38 1007.2
20260505222748 28 186 19.3 38.6 0.00 0.00 0.00 37 1007.0
20260505222220 28 187 12.9 24.1 0.00 0.00 0.00 37 1007.1
20260505221736 28 157 11.3 24.1 0.00 0.00 0.00 36 1007.0
20260505221242 28 189 8.0 29.0 0.00 0.00 0.00 34 1007.1
20260505220759 28 242 12.9 33.8 0.00 0.00 0.00 34 1006.8
20260505220255 28 203 16.1 41.8 0.00 0.00 0.00 34 1006.7
20260505215742 28 297 8.0 38.6 0.00 0.00 0.00 34 1006.9
20260505215230 28 249 17.7 38.6 0.00 0.00 0.00 32 1006.9
20260505214745 28 159 12.9 37.0 0.00 0.00 0.00 33 1006.9
20260505214240 28 178 16.1 37.0 0.00 0.00 0.00 32 1006.9
20260505213724 29 197 14.5 32.2 0.00 0.00 0.00 33 1006.9
20260505213237 29 225 8.0 30.6 0.00 0.00 0.00 32 1006.9
20260505212730 29 208 12.9 35.4 0.00 0.00 0.00 32 1006.9
20260505212242 29 198 11.3 43.5 0.00 0.00 0.00 32 1006.7
20260505211732 29 229 17.7 43.5 0.00 0.00 0.00 31 1006.7
20260505211219 29 247 9.7 22.5 0.00 0.00 0.00 33 1006.6
20260505210717 29 223 12.9 24.1 0.00 0.00 0.00 35 1006.6
20260505210235 29 226 12.9 25.7 0.00 0.00 0.00 35 1006.6
20260505205723 29 233 8.0 35.4 0.00 0.00 0.00 37 1006.5
20260505205238 29 244 11.3 51.5 0.00 0.00 0.00 37 1006.6
20260505204728 29 190 17.7 38.6 0.00 0.00 0.00 37 1006.5
20260505204243 29 116 17.7 38.6 0.00 0.00 0.00 37 1006.5
20260505203751 29 198 25.7 35.4 0.00 0.00 0.00 37 1006.3
20260505203303 30 223 16.1 35.4 0.00 0.00 0.00 37 1006.5
20260505202733 29 329 12.9 29.0 0.00 0.00 0.00 38 1006.6